DAL9308 KLAX-KMRY

Flight info

Callsign DAL9308
Flight time 0h 47m
Altitude 32000
Route SUMMR2 SCTRR DCT WIGGL DCT
Aircraft E75L/M-SDE3GILORVW/S

Departure

Time 2026-04-22 00:03
Airport Los Angeles International Airport (KLAX)

Arrival

Time 2026-04-22 00:51
Airport Monterey Regional Airport (KMRY)
Time Latitude Longitude Altitude Speed Heading
2026-04-21 23:36 33.94109 -118.40504 122 ft 0 kts 79°
2026-04-21 23:50 33.94109 -118.40505 123 ft 2 kts 79°
2026-04-21 23:50 33.94106 -118.40536 123 ft 4 kts 95°
2026-04-21 23:50 33.94116 -118.40563 119 ft 4 kts 149°
2026-04-21 23:51 33.94128 -118.40567 122 ft 1 kts 172°
2026-04-21 23:51 33.94129 -118.40567 122 ft 0 kts 172°
2026-04-21 23:52 33.94127 -118.40567 122 ft 1 kts 172°
2026-04-21 23:53 33.94109 -118.40564 120 ft 4 kts 172°
2026-04-21 23:53 33.94075 -118.40559 122 ft 6 kts 172°
2026-04-21 23:53 33.94029 -118.40552 121 ft 6 kts 173°
2026-04-21 23:53 33.93979 -118.40544 121 ft 8 kts 173°
2026-04-21 23:54 33.93920 -118.40558 123 ft 9 kts 221°
2026-04-21 23:54 33.93896 -118.40639 119 ft 11 kts 264°
2026-04-21 23:54 33.93887 -118.40742 123 ft 13 kts 263°
2026-04-21 23:54 33.93873 -118.40862 123 ft 15 kts 261°
2026-04-21 23:55 33.93854 -118.40994 123 ft 15 kts 264°
2026-04-21 23:55 33.93852 -118.41121 123 ft 15 kts 287°
2026-04-21 23:55 33.93939 -118.41174 121 ft 16 kts 354°
2026-04-21 23:55 33.94059 -118.41190 122 ft 19 kts 353°
2026-04-21 23:56 33.94197 -118.41209 121 ft 21 kts 353°
2026-04-21 23:56 33.94346 -118.41232 121 ft 23 kts 352°
2026-04-21 23:56 33.94512 -118.41260 122 ft 25 kts 351°
2026-04-21 23:56 33.94647 -118.41281 122 ft 20 kts 353°
2026-04-21 23:57 33.94712 -118.41208 123 ft 15 kts 74°
2026-04-21 23:57 33.94737 -118.41078 123 ft 17 kts 85°
2026-04-21 23:57 33.94748 -118.40939 120 ft 18 kts 77°
2026-04-21 23:57 33.94823 -118.40841 122 ft 17 kts 50°
2026-04-21 23:58 33.94854 -118.40702 123 ft 18 kts 84°
2026-04-21 23:58 33.94869 -118.40552 123 ft 19 kts 83°
2026-04-21 23:58 33.94885 -118.40398 123 ft 18 kts 82°
2026-04-21 23:58 33.94901 -118.40243 122 ft 19 kts 83°
2026-04-21 23:59 33.94916 -118.40088 123 ft 18 kts 83°
2026-04-21 23:59 33.94934 -118.39949 121 ft 13 kts 61°
2026-04-21 23:59 33.94949 -118.39929 122 ft 0 kts 35°
2026-04-22 00:01 33.94962 -118.39919 121 ft 4 kts 31°
2026-04-22 00:01 33.94999 -118.39910 122 ft 7 kts 349°
2026-04-22 00:01 33.95042 -118.39946 121 ft 8 kts 280°
2026-04-22 00:02 33.95041 -118.39967 122 ft 0 kts 261°
2026-04-22 00:02 33.95041 -118.39968 122 ft 1 kts 261°
2026-04-22 00:03 33.95022 -118.40139 123 ft 55 kts 264°
2026-04-22 00:03 33.94944 -118.40918 123 ft 129 kts 264°
2026-04-22 00:03 33.94811 -118.42142 595 ft 160 kts 262°
2026-04-22 00:03 33.94645 -118.43577 1384 ft 181 kts 262°
2026-04-22 00:04 33.94478 -118.45063 2395 ft 181 kts 263°
2026-04-22 00:04 33.94333 -118.46608 3025 ft 192 kts 263°
2026-04-22 00:04 33.94227 -118.48292 3559 ft 214 kts 267°
2026-04-22 00:04 33.94206 -118.50149 4148 ft 231 kts 268°
2026-04-22 00:05 33.94154 -118.52148 4761 ft 246 kts 265°
2026-04-22 00:05 33.93995 -118.54230 5555 ft 252 kts 262°
2026-04-22 00:05 33.93814 -118.56342 6459 ft 253 kts 261°
2026-04-22 00:05 33.93637 -118.58462 7240 ft 256 kts 261°
2026-04-22 00:06 33.93468 -118.60578 7989 ft 258 kts 261°
2026-04-22 00:06 33.93297 -118.62737 8764 ft 260 kts 261°
2026-04-22 00:06 33.93125 -118.64905 9545 ft 261 kts 261°
2026-04-22 00:06 33.92953 -118.67099 10215 ft 270 kts 261°
2026-04-22 00:07 33.92772 -118.69413 10529 ft 286 kts 262°
2026-04-22 00:07 33.92582 -118.71847 10884 ft 296 kts 262°
2026-04-22 00:07 33.92392 -118.74328 11462 ft 298 kts 262°
2026-04-22 00:07 33.92199 -118.76814 12030 ft 299 kts 262°
2026-04-22 00:08 33.92002 -118.79331 12086 ft 302 kts 262°
2026-04-22 00:08 33.91808 -118.81830 12394 ft 295 kts 262°
2026-04-22 00:08 33.91736 -118.84164 13976 ft 270 kts 267°
2026-04-22 00:08 33.91787 -118.86387 14989 ft 264 kts 268°
2026-04-22 00:09 33.91848 -118.88595 15807 ft 264 kts 268°
2026-04-22 00:09 33.91913 -118.90815 16549 ft 267 kts 268°
2026-04-22 00:09 33.91979 -118.93054 17279 ft 269 kts 268°
2026-04-22 00:09 33.92046 -118.95320 18006 ft 272 kts 268°
2026-04-22 00:10 33.92115 -118.97610 18691 ft 275 kts 268°
2026-04-22 00:10 33.92207 -118.99916 19345 ft 278 kts 273°
2026-04-22 00:10 33.92755 -119.02193 20028 ft 290 kts 288°
2026-04-22 00:10 33.93764 -119.04326 20756 ft 295 kts 292°
2026-04-22 00:11 33.94778 -119.06477 21460 ft 297 kts 292°
2026-04-22 00:11 33.95810 -119.08613 22131 ft 300 kts 292°
2026-04-22 00:11 33.96914 -119.10804 22786 ft 303 kts 293°
2026-04-22 00:11 33.98017 -119.12944 23432 ft 306 kts 294°
2026-04-22 00:12 33.99154 -119.15125 24002 ft 309 kts 294°
2026-04-22 00:12 34.00319 -119.17312 24525 ft 313 kts 297°
2026-04-22 00:12 34.01882 -119.19253 25032 ft 333 kts 312°
2026-04-22 00:12 34.03760 -119.20927 25599 ft 337 kts 312°
2026-04-22 00:13 34.05655 -119.22608 26135 ft 340 kts 313°
2026-04-22 00:13 34.07577 -119.24292 26663 ft 343 kts 313°
2026-04-22 00:13 34.09517 -119.25978 27226 ft 344 kts 313°
2026-04-22 00:13 34.11472 -119.27671 27710 ft 347 kts 313°
2026-04-22 00:14 34.13446 -119.29377 28183 ft 350 kts 313°
2026-04-22 00:14 34.15433 -119.31094 28637 ft 353 kts 313°
2026-04-22 00:14 34.17438 -119.32824 29083 ft 356 kts 313°
2026-04-22 00:14 34.19460 -119.34568 29582 ft 357 kts 313°
2026-04-22 00:15 34.21476 -119.36304 30236 ft 354 kts 312°
2026-04-22 00:15 34.23446 -119.38002 30779 ft 351 kts 312°
2026-04-22 00:15 34.25433 -119.39718 31271 ft 350 kts 312°
2026-04-22 00:15 34.27411 -119.41425 31737 ft 349 kts 312°
2026-04-22 00:16 34.29384 -119.43127 32230 ft 342 kts 312°
2026-04-22 00:16 34.33279 -119.46489 32142 ft 346 kts 312°
2026-04-22 00:17 34.37212 -119.49885 32125 ft 348 kts 312°
2026-04-22 00:17 34.41131 -119.53270 32160 ft 348 kts 312°
2026-04-22 00:18 34.44943 -119.56797 32080 ft 343 kts 309°
2026-04-22 00:18 34.48704 -119.60373 32055 ft 342 kts 310°
2026-04-22 00:19 34.52439 -119.63915 32152 ft 344 kts 310°
2026-04-22 00:19 34.56245 -119.67480 32038 ft 344 kts 310°
2026-04-22 00:20 34.59998 -119.71066 32079 ft 342 kts 310°
2026-04-22 00:20 34.63794 -119.74626 32116 ft 345 kts 310°
2026-04-22 00:21 34.67537 -119.78186 32064 ft 341 kts 310°
2026-04-22 00:21 34.71295 -119.81760 32107 ft 344 kts 310°
2026-04-22 00:22 34.75085 -119.85350 31883 ft 345 kts 310°
2026-04-22 00:22 34.76958 -119.87137 31692 ft 340 kts 310°
2026-04-22 00:22 34.78829 -119.88931 31399 ft 344 kts 310°
2026-04-22 00:22 34.80715 -119.90724 31087 ft 343 kts 310°
2026-04-22 00:23 34.82593 -119.92510 30795 ft 344 kts 310°
2026-04-22 00:23 34.84471 -119.94319 30529 ft 351 kts 310°
2026-04-22 00:23 34.86453 -119.96205 30256 ft 370 kts 311°
2026-04-22 00:23 34.88466 -119.98104 29917 ft 363 kts 311°
2026-04-22 00:24 34.90452 -120.00006 29480 ft 364 kts 310°
2026-04-22 00:24 34.92447 -120.01945 28927 ft 368 kts 311°
2026-04-22 00:24 34.94467 -120.03867 28447 ft 367 kts 311°
2026-04-22 00:24 34.96472 -120.05764 28041 ft 361 kts 311°
2026-04-22 00:25 34.98417 -120.07615 28134 ft 355 kts 311°
2026-04-22 00:25 35.02304 -120.11367 28149 ft 361 kts 311°
2026-04-22 00:26 35.06253 -120.15118 28067 ft 361 kts 312°
2026-04-22 00:26 35.10189 -120.18864 28079 ft 358 kts 311°
2026-04-22 00:27 35.14072 -120.22667 28071 ft 356 kts 310°
2026-04-22 00:27 35.17333 -120.25794 28121 ft 358 kts 312°
2026-04-22 00:28 35.21347 -120.29444 28116 ft 359 kts 313°
2026-04-22 00:28 35.25358 -120.33102 28091 ft 360 kts 312°
2026-04-22 00:29 35.29363 -120.36775 28091 ft 359 kts 312°
2026-04-22 00:29 35.33346 -120.40421 28094 ft 358 kts 312°
2026-04-22 00:30 35.37315 -120.44065 28089 ft 357 kts 313°
2026-04-22 00:30 35.41283 -120.47707 28090 ft 356 kts 312°
2026-04-22 00:31 35.45302 -120.51396 28107 ft 364 kts 313°
2026-04-22 00:31 35.49327 -120.55106 28110 ft 362 kts 312°
2026-04-22 00:32 35.53359 -120.58815 28110 ft 362 kts 313°
2026-04-22 00:32 35.55441 -120.60636 28152 ft 374 kts 314°
2026-04-22 00:32 35.57597 -120.62470 28113 ft 380 kts 315°
2026-04-22 00:33 35.61949 -120.66174 28116 ft 381 kts 315°
2026-04-22 00:33 35.66257 -120.69865 28102 ft 377 kts 314°
2026-04-22 00:33 35.68406 -120.71725 27872 ft 378 kts 314°
2026-04-22 00:34 35.70564 -120.73588 27089 ft 382 kts 314°
2026-04-22 00:34 35.72750 -120.75466 26008 ft 384 kts 314°
2026-04-22 00:34 35.74923 -120.77338 25502 ft 372 kts 314°
2026-04-22 00:34 35.77004 -120.79124 25048 ft 359 kts 314°
2026-04-22 00:35 35.79018 -120.80862 24581 ft 349 kts 313°
2026-04-22 00:35 35.80981 -120.82561 24170 ft 341 kts 313°
2026-04-22 00:35 35.82914 -120.84239 23646 ft 339 kts 313°
2026-04-22 00:35 35.84831 -120.85910 23232 ft 337 kts 313°
2026-04-22 00:36 35.86755 -120.87587 22765 ft 339 kts 313°
2026-04-22 00:36 35.88682 -120.89263 22316 ft 339 kts 313°
2026-04-22 00:36 35.90611 -120.90937 21872 ft 338 kts 314°
2026-04-22 00:36 35.92511 -120.92587 21430 ft 338 kts 314°
2026-04-22 00:37 35.94430 -120.94245 20979 ft 337 kts 314°
2026-04-22 00:37 35.96387 -120.95897 20563 ft 337 kts 316°
2026-04-22 00:37 35.98317 -120.97498 20107 ft 331 kts 315°
2026-04-22 00:37 36.00158 -120.99161 19665 ft 332 kts 314°
2026-04-22 00:38 36.02038 -121.00826 19221 ft 334 kts 316°
2026-04-22 00:38 36.03967 -121.02477 18787 ft 337 kts 316°
2026-04-22 00:38 36.05870 -121.04158 18326 ft 334 kts 315°
2026-04-22 00:38 36.07751 -121.05838 17896 ft 333 kts 316°
2026-04-22 00:39 36.09639 -121.07509 17439 ft 335 kts 316°
2026-04-22 00:39 36.11569 -121.09211 17017 ft 343 kts 317°
2026-04-22 00:39 36.13521 -121.10921 16544 ft 344 kts 317°
2026-04-22 00:39 36.15481 -121.12633 16116 ft 346 kts 318°
2026-04-22 00:40 36.17466 -121.14376 15622 ft 351 kts 319°
2026-04-22 00:40 36.19458 -121.16120 15170 ft 350 kts 319°
2026-04-22 00:40 36.21445 -121.17858 14716 ft 348 kts 319°
2026-04-22 00:40 36.23395 -121.19560 14256 ft 338 kts 319°
2026-04-22 00:41 36.25289 -121.21222 13813 ft 329 kts 319°
2026-04-22 00:41 36.27133 -121.22843 13382 ft 320 kts 319°
2026-04-22 00:41 36.28929 -121.24422 12981 ft 312 kts 319°
2026-04-22 00:41 36.30680 -121.25966 12568 ft 305 kts 320°
2026-04-22 00:42 36.32370 -121.27454 12178 ft 299 kts 320°
2026-04-22 00:42 36.34052 -121.28935 11785 ft 294 kts 320°
2026-04-22 00:42 36.35706 -121.30393 11406 ft 289 kts 320°
2026-04-22 00:42 36.37336 -121.31831 11033 ft 286 kts 320°
2026-04-22 00:43 36.38951 -121.33257 10659 ft 284 kts 320°
2026-04-22 00:43 36.40563 -121.34681 10288 ft 284 kts 320°
2026-04-22 00:43 36.42180 -121.36112 9845 ft 286 kts 320°
2026-04-22 00:43 36.43665 -121.37695 9453 ft 278 kts 309°
2026-04-22 00:44 36.44946 -121.39486 9021 ft 277 kts 307°
2026-04-22 00:44 36.46220 -121.41278 8581 ft 276 kts 308°
2026-04-22 00:44 36.47517 -121.43030 8160 ft 275 kts 309°
2026-04-22 00:44 36.48833 -121.44764 7696 ft 275 kts 309°
2026-04-22 00:45 36.50147 -121.46481 7288 ft 273 kts 309°
2026-04-22 00:45 36.51453 -121.48182 6861 ft 271 kts 309°
2026-04-22 00:45 36.52753 -121.49873 6436 ft 270 kts 310°
2026-04-22 00:45 36.54050 -121.51560 6012 ft 268 kts 310°
2026-04-22 00:46 36.55336 -121.53234 5617 ft 266 kts 309°
2026-04-22 00:46 36.56596 -121.54872 5201 ft 263 kts 309°
2026-04-22 00:46 36.57561 -121.56724 4795 ft 252 kts 282°
2026-04-22 00:46 36.57510 -121.58810 4547 ft 239 kts 251°
2026-04-22 00:47 36.56963 -121.60727 4292 ft 233 kts 250°
2026-04-22 00:47 36.56480 -121.62626 3971 ft 226 kts 260°
2026-04-22 00:47 36.56521 -121.64535 3709 ft 217 kts 272°
2026-04-22 00:47 36.56665 -121.66378 3409 ft 209 kts 274°
2026-04-22 00:48 36.56810 -121.68143 3125 ft 200 kts 275°
2026-04-22 00:48 36.56948 -121.69843 2803 ft 196 kts 275°
2026-04-22 00:48 36.57087 -121.71500 2501 ft 186 kts 276°
2026-04-22 00:48 36.57214 -121.73001 2189 ft 165 kts 277°
2026-04-22 00:49 36.57326 -121.74351 1913 ft 149 kts 277°
2026-04-22 00:49 36.57437 -121.75582 1695 ft 138 kts 275°
2026-04-22 00:49 36.57526 -121.76755 1435 ft 135 kts 274°
2026-04-22 00:49 36.57591 -121.77916 1325 ft 144 kts 273°
2026-04-22 00:50 36.57672 -121.79218 1207 ft 157 kts 274°
2026-04-22 00:50 36.57744 -121.80574 1045 ft 153 kts 272°
2026-04-22 00:50 36.57888 -121.81857 731 ft 148 kts 282°
2026-04-22 00:50 36.58217 -121.83053 398 ft 143 kts 288°
2026-04-22 00:51 36.58611 -121.84133 230 ft 125 kts 286°
2026-04-22 00:51 36.58873 -121.84945 201 ft 66 kts 294°
2026-04-22 00:51 36.58960 -121.85242 181 ft 17 kts 257°
2026-04-22 00:51 36.58887 -121.85276 184 ft 6 kts 130°
2026-04-22 00:52 36.58869 -121.85226 192 ft 7 kts 102°
2026-04-22 00:52 36.58859 -121.85169 196 ft 6 kts 104°
2026-04-22 00:52 36.58847 -121.85120 194 ft 5 kts 109°
2026-04-22 00:52 36.58836 -121.85079 199 ft 5 kts 109°
2026-04-22 00:53 36.58820 -121.85034 198 ft 6 kts 115°
2026-04-22 00:53 36.58799 -121.85014 196 ft 2 kts 182°
2026-04-22 00:53 36.58783 -121.85030 198 ft 4 kts 235°
2026-04-22 00:53 36.58778 -121.85039 197 ft 3 kts 238°
2026-04-22 00:54 36.58777 -121.85041 197 ft 0 kts 238°